Location: Temple Hill
(37.3073°N, 88.6303°W)
Time: 17:38:42
(UTC+00:00)

CRYOSAT 2 - Pass Details

Date: 23 November 2020
Orbit: 715 x 723 km, 92.0° (Epoch: 19 January)

Event Time Altitude Azimuth Distance (km) Brightness Sun altitude
Rises 23:09:26 0° 8° (N) 3,140 7.4 -6.3°
Reaches altitude 10° 23:11:45 10° 12° (NNE) 2,216 6.6 -6.8°
Maximum altitude 23:16:37 61° 93° (E) 816 4.4 -7.7°
Drops below altitude 10° 23:21:26 10° 174° (S) 2,205 7.1 -8.6°
Sets 23:23:44 0° 178° (S) 3,122 7.9 -9.0°
